Weather in Santiago de Cuba

Cuba     20°02′09″N   75°49′00″W
temp.,
°C
wind,
m/s
gust,
m/s
humid.,
%
clouds,
%
prec.,
mm/h
press.,
hPa
HPBL,
m
29 june, wed
wed2923:00+23nne118952 0.1 101934
02:00+23ne119215 0.1 101837
05:00+22nne229313 0.0 101744
08:00+25nne12785 0.0 1018174
11:00+32e24486 0.0 10181535
14:00+33sse454682 0.0 10172074
17:00+30se455973 0.2 10161061
20:00+26ese248258 0.4 1017195
30 june, thu
thu3023:00+23nne239219 0.5 101867
02:00+22nne229311 0.5 101853
05:00+22nne229395 0.0 101747
08:00+25n1280100 0.0 1017167
11:00+32e2547100 0.0 10161581
14:00+34se354299 0.0 10152179
17:00+33se354644 0.0 10131740
20:00+27ne246698 0.3 1015120
1 july, fri
fri123:00+23nne228124 0.1 101755
02:00+22nne118658 0.1 101637
05:00+22nne129084 0.0 101548
08:00+25nne127534 0.0 1015222
11:00+31ese245178 0.0 10151642
14:00+31se3458100 1.3 10141468
17:00+29se3566100 1.9 1013885
20:00+24e2389100 6.6 101570
2 july, sat
sat223:00+23nne1292100 0.6 101648
02:00+22nne1191100 0.6 101534
05:00+22nne2291100 0.0 101446
08:00+24nne1284100 0.0 101597
11:00+32ese135098 0.0 10151367
14:00+32sse3454100 0.3 10141414
17:00+28se1381100 5.1 101396
20:00+24n2291100 7.0 101454
3 july, sun
sun323:00+22nne2392100 0.0 101665
02:00+22nne2294100 0.0 101552
05:00+22nne239677 0.0 101475
08:00+24nne24856 0.0 1015179
11:00+32ese375249 0.0 10151670
14:00+33ese675139 0.1 10141813
17:00+29se3571100 1.7 1014984
20:00+24se1192100 7.5 101634